Time,TemperatureF,DewpointF,PressureIn,WindDirection,WindDirectionDegrees,WindSpeedMPH,WindSpeedGustMPH,Humidity,HourlyPrecipIn,Conditions,Clouds,dailyrainin,SolarRadiationWatts/m^2,SoftwareType,DateUTC
2013-05-03 00:01:00,61.0,29.0,-100.00,ENE,78,3.0,7.0,29,0.00,,,-99.99,0.000000,,2013-05-03 07:01:00,
2013-05-03 00:11:00,60.0,29.0,-100.00,ESE,109,4.0,6.0,31,0.00,,,-99.99,0.000000,,2013-05-03 07:11:00,
2013-05-03 00:32:00,60.0,29.0,-100.00,ESE,109,4.0,6.0,31,0.00,,,-99.99,0.000000,,2013-05-03 07:32:00,
2013-05-03 00:42:00,60.0,29.0,-100.00,ESE,109,4.0,6.0,31,0.00,,,-99.99,0.000000,,2013-05-03 07:42:00,
2013-05-03 00:52:00,60.0,29.0,-100.00,ESE,109,4.0,6.0,31,0.00,,,-99.99,0.000000,,2013-05-03 07:52:00,
2013-05-03 01:01:00,60.0,29.0,-100.00,ESE,109,4.0,6.0,31,0.00,,,-99.99,0.000000,,2013-05-03 08:01:00,
2013-05-03 01:11:00,60.0,29.0,-100.00,SE,124,3.0,6.0,31,0.00,,,0.00,0.000000,,2013-05-03 08:11:00,
2013-05-03 01:42:00,60.0,29.0,-100.00,SE,124,3.0,6.0,31,0.00,,,0.00,0.000000,,2013-05-03 08:42:00,
2013-05-03 01:52:00,60.0,29.0,-100.00,SE,124,3.0,6.0,31,0.00,,,0.00,0.000000,,2013-05-03 08:52:00,
2013-05-03 02:01:00,60.0,29.0,-100.00,SE,124,3.0,6.0,31,0.00,,,0.00,0.000000,,2013-05-03 09:01:00,
2013-05-03 02:11:00,60.0,29.0,-100.00,SE,130,4.0,6.0,31,0.00,,,0.00,0.000000,,2013-05-03 09:11:00,
2013-05-03 02:42:00,60.0,29.0,-100.00,SE,130,4.0,6.0,31,0.00,,,0.00,0.000000,,2013-05-03 09:42:00,
2013-05-03 02:53:00,60.0,29.0,-100.00,SE,130,4.0,6.0,31,0.00,,,0.00,0.000000,,2013-05-03 09:53:00,
2013-05-03 03:02:00,60.0,29.0,-100.00,SE,130,4.0,6.0,31,0.00,,,0.00,0.000000,,2013-05-03 10:02:00,
2013-05-03 03:11:00,60.0,28.0,-100.00,SE,127,3.0,7.0,30,0.00,,,0.00,0.000000,,2013-05-03 10:11:00,
2013-05-03 03:32:00,60.0,28.0,-100.00,SE,127,3.0,7.0,30,0.00,,,0.00,0.000000,,2013-05-03 10:32:00,
2013-05-03 03:42:00,60.0,28.0,-100.00,SE,127,3.0,7.0,30,0.00,,,0.00,0.000000,,2013-05-03 10:42:00,
2013-05-03 03:52:00,60.0,28.0,-100.00,SE,127,3.0,7.0,30,0.00,,,0.00,0.000000,,2013-05-03 10:52:00,
2013-05-03 04:02:00,60.0,28.0,-100.00,SE,127,3.0,7.0,30,0.00,,,0.00,0.000000,,2013-05-03 11:02:00,
2013-05-03 04:11:00,59.0,27.0,-100.00,SE,129,3.0,9.0,29,0.00,,,0.00,0.000000,,2013-05-03 11:11:00,
2013-05-03 04:32:00,59.0,27.0,-100.00,SE,129,3.0,9.0,29,0.00,,,0.00,0.000000,,2013-05-03 11:32:00,
2013-05-03 04:42:00,59.0,27.0,-100.00,SE,129,3.0,9.0,29,0.00,,,0.00,0.000000,,2013-05-03 11:42:00,
2013-05-03 04:52:00,59.0,27.0,-100.00,SE,129,3.0,9.0,29,0.00,,,0.00,0.000000,,2013-05-03 11:52:00,
2013-05-03 05:01:00,59.0,27.0,-100.00,SE,129,3.0,9.0,29,0.00,,,0.00,0.000000,,2013-05-03 12:01:00,
2013-05-03 06:11:00,62.0,28.0,-100.00,East,87,7.0,12.0,27,-99.99,,,0.00,0.000000,,2013-05-03 13:11:00,
2013-05-03 06:42:00,62.0,28.0,-100.00,East,87,7.0,12.0,27,-99.99,,,0.00,0.000000,,2013-05-03 13:42:00,
2013-05-03 06:52:00,62.0,28.0,-100.00,East,87,7.0,12.0,27,-99.99,,,0.00,0.000000,,2013-05-03 13:52:00,
2013-05-03 07:01:00,62.0,28.0,-100.00,East,87,7.0,12.0,27,-99.99,,,0.00,0.000000,,2013-05-03 14:01:00,
2013-05-03 07:11:00,61.0,29.0,-100.00,ESE,109,4.0,10.0,29,0.00,,,0.00,33.000000,,2013-05-03 14:11:00,
2013-05-03 07:42:00,61.0,29.0,-100.00,ESE,109,4.0,10.0,29,0.00,,,0.00,33.000000,,2013-05-03 14:42:00,
2013-05-03 07:52:00,61.0,29.0,-100.00,ESE,109,4.0,10.0,29,0.00,,,0.00,33.000000,,2013-05-03 14:52:00,
2013-05-03 08:01:00,61.0,29.0,-100.00,ESE,109,4.0,10.0,29,0.00,,,0.00,33.000000,,2013-05-03 15:01:00,
2013-05-03 08:11:00,70.0,34.0,-100.00,ESE,116,4.0,7.0,26,0.00,,,0.00,234.000000,,2013-05-03 15:11:00,
2013-05-03 08:43:00,70.0,34.0,-100.00,ESE,116,4.0,7.0,26,0.00,,,0.00,234.000000,,2013-05-03 15:43:00,
2013-05-03 08:53:00,70.0,34.0,-100.00,ESE,116,4.0,7.0,26,0.00,,,0.00,234.000000,,2013-05-03 15:53:00,
2013-05-03 09:03:00,70.0,34.0,-100.00,ESE,116,4.0,7.0,26,0.00,,,0.00,234.000000,,2013-05-03 16:03:00,
2013-05-03 09:11:00,80.0,31.0,-100.00,West,262,2.0,5.0,17,0.00,,,0.00,405.000000,,2013-05-03 16:11:00,
2013-05-03 09:33:00,80.0,31.0,-100.00,West,262,2.0,5.0,17,0.00,,,0.00,405.000000,,2013-05-03 16:33:00,
2013-05-03 09:42:00,80.0,31.0,-100.00,West,262,2.0,5.0,17,0.00,,,0.00,405.000000,,2013-05-03 16:42:00,
2013-05-03 09:52:00,80.0,31.0,-100.00,West,262,2.0,5.0,17,0.00,,,0.00,405.000000,,2013-05-03 16:52:00,
2013-05-03 10:02:00,80.0,31.0,-100.00,West,262,2.0,5.0,17,0.00,,,0.00,405.000000,,2013-05-03 17:02:00,
2013-05-03 10:11:00,82.0,28.0,-100.00,NW,304,6.0,9.0,14,0.00,,,0.00,578.000000,,2013-05-03 17:11:00,
2013-05-03 10:42:00,82.0,28.0,-100.00,NW,304,6.0,9.0,14,0.00,,,0.00,578.000000,,2013-05-03 17:42:00,
2013-05-03 11:11:00,84.0,28.0,-100.00,WNW,289,8.0,16.0,13,0.00,,,0.00,782.000000,,2013-05-03 18:11:00,
2013-05-03 11:32:00,84.0,28.0,-100.00,WNW,289,8.0,16.0,13,0.00,,,0.00,782.000000,,2013-05-03 18:32:00,
2013-05-03 11:42:00,84.0,28.0,-100.00,WNW,289,8.0,16.0,13,0.00,,,0.00,782.000000,,2013-05-03 18:42:00,
2013-05-03 11:52:00,84.0,28.0,-100.00,WNW,289,8.0,16.0,13,0.00,,,0.00,782.000000,,2013-05-03 18:52:00,
2013-05-03 12:01:00,84.0,28.0,-100.00,WNW,289,8.0,16.0,13,0.00,,,0.00,782.000000,,2013-05-03 19:01:00,
2013-05-03 12:32:00,85.0,25.0,-100.00,NNW,332,8.0,16.0,11,0.00,,,0.00,879.000000,,2013-05-03 19:32:00,
2013-05-03 12:42:00,85.0,25.0,-100.00,NNW,332,8.0,16.0,11,0.00,,,0.00,879.000000,,2013-05-03 19:42:00,
2013-05-03 12:52:00,85.0,25.0,-100.00,NNW,332,8.0,16.0,11,0.00,,,0.00,879.000000,,2013-05-03 19:52:00,
2013-05-03 13:02:00,85.0,25.0,-100.00,NNW,332,8.0,16.0,11,0.00,,,0.00,879.000000,,2013-05-03 20:02:00,
2013-05-03 13:11:00,86.0,25.0,-100.00,WNW,296,9.0,19.0,11,0.00,,,0.00,944.000000,,2013-05-03 20:11:00,
2013-05-03 13:32:00,86.0,25.0,-100.00,WNW,296,9.0,19.0,11,0.00,,,0.00,944.000000,,2013-05-03 20:32:00,
2013-05-03 13:42:00,86.0,25.0,-100.00,WNW,296,9.0,19.0,11,0.00,,,0.00,944.000000,,2013-05-03 20:42:00,
2013-05-03 13:52:00,86.0,25.0,-100.00,WNW,296,9.0,19.0,11,0.00,,,0.00,944.000000,,2013-05-03 20:52:00,
2013-05-03 14:01:00,86.0,25.0,-100.00,WNW,296,9.0,19.0,11,0.00,,,0.00,944.000000,,2013-05-03 21:01:00,
2013-05-03 14:11:00,85.0,27.0,-100.00,NW,310,15.0,25.0,12,0.00,,,0.00,935.000000,,2013-05-03 21:11:00,
2013-05-03 14:33:00,85.0,27.0,-100.00,NW,310,15.0,25.0,12,0.00,,,0.00,935.000000,,2013-05-03 21:33:00,
2013-05-03 14:43:00,85.0,27.0,-100.00,NW,310,15.0,25.0,12,0.00,,,0.00,935.000000,,2013-05-03 21:43:00,
2013-05-03 14:53:00,85.0,27.0,-100.00,NW,310,15.0,25.0,12,0.00,,,0.00,935.000000,,2013-05-03 21:53:00,
2013-05-03 15:02:00,85.0,27.0,-100.00,NW,310,15.0,25.0,12,0.00,,,0.00,935.000000,,2013-05-03 22:02:00,
2013-05-03 18:11:00,77.0,22.0,-100.00,WNW,300,10.0,20.0,13,-99.99,,,0.00,375.000000,,2013-05-04 01:11:00,
2013-05-03 18:32:00,77.0,22.0,-100.00,WNW,300,10.0,20.0,13,-99.99,,,0.00,375.000000,,2013-05-04 01:32:00,
2013-05-03 18:42:00,77.0,22.0,-100.00,WNW,300,10.0,20.0,13,-99.99,,,0.00,375.000000,,2013-05-04 01:42:00,
2013-05-03 18:52:00,77.0,22.0,-100.00,WNW,300,10.0,20.0,13,-99.99,,,0.00,375.000000,,2013-05-04 01:52:00,
2013-05-03 19:02:00,77.0,22.0,-100.00,WNW,300,10.0,20.0,13,-99.99,,,0.00,375.000000,,2013-05-04 02:02:00,
2013-05-03 19:11:00,74.0,22.0,-100.00,WNW,302,8.0,13.0,14,0.00,,,0.00,30.000000,,2013-05-04 02:11:00,
2013-05-03 19:32:00,74.0,22.0,-100.00,WNW,302,8.0,13.0,14,0.00,,,0.00,30.000000,,2013-05-04 02:32:00,
2013-05-03 19:42:00,74.0,22.0,-100.00,WNW,302,8.0,13.0,14,0.00,,,0.00,30.000000,,2013-05-04 02:42:00,
2013-05-03 19:52:00,74.0,22.0,-100.00,WNW,302,8.0,13.0,14,0.00,,,0.00,30.000000,,2013-05-04 02:52:00,
2013-05-03 20:02:00,74.0,22.0,-100.00,WNW,302,8.0,13.0,14,0.00,,,0.00,30.000000,,2013-05-04 03:02:00,
2013-05-03 20:11:00,67.0,22.0,-100.00,North,11,1.0,9.0,18,0.00,,,-99.99,31.000000,,2013-05-04 03:11:00,
2013-05-03 20:43:00,67.0,22.0,-100.00,North,11,1.0,9.0,18,0.00,,,-99.99,31.000000,,2013-05-04 03:43:00,
2013-05-03 20:52:00,67.0,22.0,-100.00,North,11,1.0,9.0,18,0.00,,,-99.99,31.000000,,2013-05-04 03:52:00,
2013-05-03 21:02:00,67.0,22.0,-100.00,North,11,1.0,9.0,18,0.00,,,-99.99,31.000000,,2013-05-04 04:02:00,
2013-05-03 21:11:00,63.0,21.0,-100.00,East,94,3.0,7.0,20,0.00,,,0.00,0.000000,,2013-05-04 04:11:00,
2013-05-03 21:43:00,63.0,21.0,-100.00,East,94,3.0,7.0,20,0.00,,,0.00,0.000000,,2013-05-04 04:43:00,
2013-05-03 21:52:00,63.0,21.0,-100.00,East,94,3.0,7.0,20,0.00,,,0.00,0.000000,,2013-05-04 04:52:00,
2013-05-03 22:02:00,63.0,21.0,-100.00,East,94,3.0,7.0,20,0.00,,,0.00,0.000000,,2013-05-04 05:02:00,
2013-05-03 22:11:00,60.0,21.0,-100.00,East,98,5.0,7.0,22,0.00,,,0.00,0.000000,,2013-05-04 05:11:00,
2013-05-03 22:32:00,60.0,21.0,-100.00,East,98,5.0,7.0,22,0.00,,,0.00,0.000000,,2013-05-04 05:32:00,
2013-05-03 22:43:00,60.0,21.0,-100.00,East,98,5.0,7.0,22,0.00,,,0.00,0.000000,,2013-05-04 05:43:00,
2013-05-03 22:52:00,60.0,21.0,-100.00,East,98,5.0,7.0,22,0.00,,,0.00,0.000000,,2013-05-04 05:52:00,
2013-05-03 23:01:00,60.0,21.0,-100.00,East,98,5.0,7.0,22,0.00,,,0.00,0.000000,,2013-05-04 06:01:00,
2013-05-03 23:11:00,59.0,19.0,-100.00,ESE,118,4.0,7.0,21,0.00,,,0.00,0.000000,,2013-05-04 06:11:00,
2013-05-03 23:32:00,59.0,19.0,-100.00,ESE,118,4.0,7.0,21,0.00,,,0.00,0.000000,,2013-05-04 06:32:00,
2013-05-03 23:42:00,59.0,19.0,-100.00,ESE,118,4.0,7.0,21,0.00,,,0.00,0.000000,,2013-05-04 06:42:00,
2013-05-03 23:52:00,59.0,19.0,-100.00,ESE,118,4.0,7.0,21,0.00,,,0.00,0.000000,,2013-05-04 06:52:00,